Location: *
(50.4271°N, 14.9170°E)
Time: 08:19:43
(UTC+00:00)

Daily predictions for brighter satellites

Satellite Brightness Start Highest point End
(mag) Time Altitude Azimuth Time Altitude Azimuth Time Altitude Azimuth
IRS-1A Rocket 4.4 18:06:26 10° SSE 18:12:10 78° ENE 18:18:04 10° NNW
Cosmos 1980 Rocket 4.3 18:11:48 10° N 18:14:12 13° NNE 18:16:37 10° NE
SJ-11-01 4.4 18:10:15 10° SSE 18:14:59 85° WSW 18:19:45 10° NNW
ATLAS 2AS CENTAUR R/B 3.1 18:08:38 10° NW 18:16:20 80° SW 18:23:22 10° SE
STARLINK-1192 3.8 18:12:49 10° WNW 18:16:58 69° NNE 18:21:06 10° E
SeaSat 1 2.4 18:13:18 10° NNE 18:18:17 77° ESE 18:23:12 10° SSW
STARLINK-1234 3.1 18:17:09 10° WNW 18:20:15 65° SSW 18:23:20 10° ESE
STARLINK-1209 3.1 18:17:37 10° WNW 18:20:43 62° SSW 18:23:48 10° SE
STARLINK-1233 2.9 18:18:00 10° WNW 18:21:09 79° SSW 18:24:17 10° ESE
STARLINK-1212 2.9 18:18:28 10° WNW 18:21:37 79° SSW 18:24:45 10° ESE
STARLINK-1105 2.9 18:18:54 10° WNW 18:22:03 78° SSW 18:25:12 10° ESE
STARLINK-1244 3.8 18:17:54 10° WNW 18:22:03 71° NNE 18:26:12 10° E
ATLAS 5 CENTAUR R/B 2.1 18:18:26 10° S 18:22:14 35° ESE 18:26:29 10° NE
STARLINK-1206 2.9 18:19:23 10° WNW 18:22:30 78° SSW 18:25:37 10° ESE
STARLINK-1247 2.9 18:19:50 10° WNW 18:22:59 77° SSW 18:26:05 10° ESE
STARLINK-1227 2.9 18:20:14 10° WNW 18:23:24 77° SSW 18:26:32 10° ESE
STARLINK-1218 2.9 18:20:44 10° WNW 18:23:52 76° SSW 18:26:59 10° ESE
COSMOS 2455 3.0 18:18:02 10° NNW 18:24:03 67° NE 18:30:03 10° SE
STARLINK-1226 2.9 18:21:11 10° WNW 18:24:18 76° SSW 18:27:26 10° ESE
H-2A R/B 2.0 18:19:28 10° SSE 18:24:39 87° ENE 18:29:42 10° NNW
STARLINK-1254 2.9 18:21:36 10° WNW 18:24:45 75° SSW 18:27:53 10° ESE
Cosmos 1603 4.1 18:19:14 10° SW 18:24:49 70° WNW 18:30:27 10° NNE
STARLINK-1215 2.9 18:22:06 10° WNW 18:25:13 75° SSW 18:28:20 10° ESE
STARLINK-1231 2.9 18:22:33 10° WNW 18:25:40 74° SSW 18:28:47 10° ESE
STARLINK-1232 2.9 18:23:27 10° WNW 18:26:35 74° SSW 18:29:40 10° ESE
STARLINK-1138 3.8 18:22:48 10° WNW 18:26:57 73° NNE 18:31:06 10° E
STARLINK-1217 2.9 18:23:54 10° WNW 18:27:01 73° SSW 18:30:07 10° ESE
STARLINK-1208 3.0 18:24:19 10° WNW 18:27:27 73° SSW 18:30:33 10° ESE
Abrixas rocket 2.7 18:24:56 10° W 18:27:46 41° SSW 18:30:33 10° ESE
STARLINK-1229 2.9 18:24:48 10° WNW 18:27:55 72° SSW 18:30:58 10° ESE
STARLINK-1271 3.0 18:25:15 10° WNW 18:28:22 72° SSW 18:31:25 11° ESE
STARLINK-1270 3.0 18:25:42 10° WNW 18:28:50 71° SSW 18:31:51 11° ESE
STARLINK-1154 3.0 18:26:10 10° WNW 18:29:17 71° SSW 18:32:17 11° ESE
STARLINK-1197 3.0 18:27:04 10° WNW 18:30:11 70° SSW 18:33:09 11° ESE
STARLINK-1189 3.0 18:27:30 10° WNW 18:30:37 70° SSW 18:33:34 11° ESE
STARLINK-1198 3.0 18:27:58 10° WNW 18:31:05 69° SSW 18:34:01 11° ESE
STARLINK-1188 3.0 18:28:23 10° WNW 18:31:31 69° SSW 18:34:26 11° ESE
STARLINK-1143 3.7 18:27:46 10° WNW 18:31:56 75° NNE 18:36:00 11° ESE
Cosmos 1140 Rocket 3.8 18:27:08 10° S 18:31:58 42° ESE 18:36:49 10° NE
STARLINK-1235 3.3 18:29:04 10° WNW 18:32:11 57° SSW 18:35:09 11° SE
STARLINK-1187 3.1 18:29:28 10° WNW 18:32:37 62° SSW 18:35:33 11° SE
STARLINK-1199 3.0 18:30:21 10° WNW 18:33:29 67° SSW 18:36:21 12° ESE
STARLINK-1191 3.0 18:30:48 10° WNW 18:33:55 66° SSW 18:36:47 12° ESE
Ariane Rocket 3.4 18:28:53 10° S 18:33:56 70° WSW 18:39:00 10° NNW
STARLINK-1210 3.1 18:31:15 10° WNW 18:34:23 66° SSW 18:37:13 12° ESE
STARLINK-1221 3.1 18:31:42 10° WNW 18:34:50 66° SSW 18:37:40 12° SE
STARLINK-1219 3.1 18:32:09 10° WNW 18:35:18 65° SSW 18:38:06 12° SE
STARLINK-1222 3.1 18:32:36 10° WNW 18:35:43 65° SSW 18:38:31 12° SE
STARLINK-1211 3.1 18:33:05 10° WNW 18:36:12 64° SSW 18:38:58 12° SE
STARLINK-1214 3.1 18:33:31 10° WNW 18:36:38 64° SSW 18:39:24 13° SE
STARLINK-1241 3.7 18:32:48 10° WNW 18:36:58 78° NNE 18:40:49 12° ESE
STARLINK-1245 3.1 18:33:59 10° WNW 18:37:05 63° SSW 18:39:48 13° SE
STARLINK-1238 3.1 18:34:24 10° WNW 18:37:31 63° SSW 18:40:15 13° SE
STARLINK-1205 3.1 18:35:21 10° WNW 18:38:27 62° SSW 18:41:07 13° SE
ERBS 2.8 18:35:08 10° NW 18:38:27 51° NNE 18:41:22 13° E
STARLINK-1204 3.1 18:35:48 10° WNW 18:38:54 62° SSW 18:41:33 13° SE
Meteor 1-16 Rocket 4.3 18:33:55 10° SSW 18:39:22 84° WNW 18:45:03 10° NNE
CZ-2C R/B 3.0 18:34:41 10° S 18:39:30 77° WSW 18:44:17 10° NNW
Cosmos 614 Rocket 3.9 18:34:36 10° SSW 18:39:48 76° ESE 18:45:01 10° NNE
STARLINK-1239 3.7 18:37:46 10° WNW 18:41:56 80° NNE 18:45:35 13° ESE
ATLAS CENTAUR R/B 3.4 18:39:55 10° NNW 18:42:37 17° NNE 18:45:12 10° ENE
MONITOR-E 4.3 18:40:18 10° S 18:42:54 58° WSW 18:45:31 10° NNW
STARLINK-29 3.5 18:41:17 10° SW 18:44:16 37° SSE 18:47:14 10° ENE
Cosmos 1190 Rocket 4.0 18:40:38 10° S 18:45:51 62° ESE 18:51:05 10° NNE
SJ-6B 3.0 18:41:54 10° SSE 18:46:01 82° WSW 18:50:11 10° NNW
Resurs 1-3 3.8 18:42:09 10° SSE 18:46:25 55° ENE 18:50:44 10° N
STARLINK-1240 3.6 18:42:45 10° WNW 18:46:55 83° NNE 18:50:22 15° ESE
Aureole 1 Rocket 4.0 18:39:50 10° SSW 18:47:03 77° ESE 18:52:38 10° NNE
Cosmos 1300 3.5 18:44:32 10° SSE 18:47:56 31° E 18:51:21 10° NNE
BREEZE-M DEB (TANK) 4.2 18:41:56 10° WNW 18:48:26 49° SSW 18:50:46 15° SE
SL-24 R/B 3.9 18:47:07 10° NNE 18:51:04 51° E 18:54:41 10° S
STARLINK-60 2.9 18:48:31 10° WSW 18:51:48 74° SSE 18:55:05 10° ENE
STARLINK-1216 3.6 18:47:43 10° WNW 18:51:53 86° NNE 18:55:08 16° ESE
Terra 4.0 18:52:04 10° ENE 18:53:28 11° NE 18:54:53 10° NNE
CZ-2C R/B 3.8 18:49:15 10° NNE 18:53:54 56° E 18:58:26 10° S
STARLINK-1237 3.6 18:52:40 10° WNW 18:56:51 90° ENE 18:59:54 18° ESE
Cosmos 2058 Rocket 3.0 18:55:50 10° S 19:00:21 79° E 19:04:52 10° NNE
STARLINK-1202 3.6 18:57:41 10° WNW 19:01:51 87° SSW 19:04:42 20° ESE
Cosmos 1726 Rocket 4.0 18:58:39 10° SSW 19:03:03 66° WNW 19:07:30 10° N
SL-08 RB Rocket 4.1 18:58:30 10° S 19:03:04 68° WSW 19:07:42 10° NNW
Cosmos 1461 4.2 18:58:57 10° NW 19:03:15 42° WSW 19:07:38 10° SSE
STARLINK-1228 4.2 19:01:14 10° W 19:03:50 28° SW 19:05:31 16° SSE
DMSP B5D2-2 4.1 18:59:53 10° NNE 19:05:02 56° E 19:10:11 10° S
Cosmos 921 Rocket 3.2 19:01:09 10° NNW 19:05:20 68° WSW 19:09:30 10° S
Cosmos 2341 Rocket 4.0 18:59:46 10° N 19:06:12 75° E 19:12:35 10° SSE
Cosmos 1726 4.5 19:04:39 10° SW 19:07:53 27° WNW 19:11:09 10° N
SL-4 R/B 1.5 19:04:51 10° WSW 19:08:16 85° NNW 19:10:57 16° ENE
ERS-1 Rocket 4.4 19:07:01 16° E 19:09:33 23° ENE 19:13:27 10° N
CZ-4C R/B 3.7 19:04:04 10° NW 19:10:13 38° NNE 19:16:38 13° E
Cosmos 407 Rocket 3.7 19:06:20 10° SSW 19:11:28 74° WNW 19:16:38 10° NNE
Cosmos 1908 4.3 19:07:44 10° SSW 19:11:30 48° WNW 19:15:19 10° N
STARLINK-1246 3.6 19:07:37 10° WNW 19:11:48 80° SSW 19:14:15 23° ESE
Cosmos 1408 4.2 19:09:13 10° NNE 19:11:52 18° ENE 19:12:35 18° E
Cosmos 1340 Rocket 3.0 19:07:54 10° SSW 19:11:57 76° WNW 19:15:59 10° N
RESURS DK-1 3.6 19:08:38 10° NNW 19:12:18 29° NE 19:14:21 19° E
STARLINK-1201 3.9 19:09:53 10° WNW 19:12:58 39° SSW 19:14:33 23° SSE
Cosmos 2228 4.3 19:09:54 10° SSW 19:14:02 44° WNW 19:18:14 10° N
Cosmos 676 Rocket 4.0 19:09:50 10° S 19:15:03 66° ESE 19:20:16 10° NNE
COSMOS 2406 4.2 19:13:01 18° SE 19:15:20 24° ESE 19:19:47 10° NE
STARLINK-1224 3.6 19:12:38 10° WNW 19:16:48 76° SSW 19:19:04 26° ESE
Cosmos 2218 Rocket 4.1 19:11:14 10° N 19:17:23 58° ENE 19:22:17 17° SSE
STARLINK-1203 3.7 19:14:47 10° WNW 19:18:58 70° SSW 19:21:13 26° SE
Cosmos 2058 3.2 19:15:09 10° N 19:19:09 46° ENE 19:21:10 25° SE
Cosmos 220 Rocket 4.0 19:15:08 10° NNW 19:19:29 75° ENE 19:22:11 23° SSE
MetOp-A 4.4 19:14:38 10° S 19:19:58 70° WSW 19:25:21 10° NNW
Resurs 01 Rocket 1.5 19:17:43 15° SSE 19:21:19 84° ENE 19:25:45 10° NNW
MOS 1 Rocket 3.6 19:16:13 10° NNE 19:21:39 73° ESE 19:27:04 10° S
STARLINK-1225 3.6 19:17:38 10° WNW 19:21:47 72° SSW 19:23:51 28° SE
CZ-2C R/B 2.5 19:17:47 10° NNE 19:22:58 67° ESE 19:28:09 10° S
STARLINK-52 2.9 19:21:24 10° SW 19:24:34 63° SSE 19:25:56 30° E
STARLINK-1230 3.7 19:22:36 10° WNW 19:26:44 68° SSW 19:28:37 30° SE
BREEZE M DEB (TANK) 3.5 19:23:52 10° SSW 19:27:14 40° SE 19:36:16 10° ENE
Cosmos 1812 Rocket 3.8 19:25:20 22° SSE 19:27:50 46° E 19:31:59 10° NNE
SPOT 3 Rocket 4.2 19:24:01 10° S 19:29:07 54° W 19:34:14 10° NNW
SL-8 Rocket 4.0 19:23:21 10° N 19:29:43 82° E 19:35:13 14° SSE
Cosmos 1697 Rocket 3.5 19:24:30 10° NNW 19:29:48 38° NE 19:32:44 23° ESE
Cosmos 2151 4.0 19:26:23 10° N 19:30:03 28° ENE 19:30:59 26° E
Cosmos 864 Rocket 4.5 19:25:06 10° N 19:31:18 66° ENE 19:35:37 20° SSE
STARLINK-1243 3.7 19:27:34 10° WNW 19:31:41 64° SSW 19:33:24 33° SE
FALCON 9 DEB 3.0 19:29:26 10° WSW 19:32:56 73° SSE 19:34:33 29° ENE
Iridium 2 3.6 19:33:27 25° S 19:35:34 68° E 19:39:23 10° N
Cosmos 2181 Rocket 3.9 19:30:19 10° S 19:36:31 73° E 19:42:41 10° NNE
STARLINK-1236 3.8 19:32:33 10° WNW 19:36:39 61° SSW 19:38:11 35° SE
Cosmos 1954 Rocket 4.0 19:31:25 10° SSW 19:36:40 89° WNW 19:41:55 10° NNE
Cosmos 2366 rocket 3.9 19:37:40 10° N 19:43:51 83° E 19:48:11 21° SSE
Cosmos 1076 Rocket 3.4 19:39:58 10° N 19:44:17 86° E 19:46:20 31° SSE
Cosmos 1741 Rocket 4.3 19:41:05 19° S 19:44:39 47° ESE 19:49:45 10° NNE
Meteor 2-1 Rocket 4.4 19:41:06 17° S 19:45:41 59° E 19:51:31 10° NNE
STARLINK-1269 3.9 19:42:31 10° WNW 19:46:35 54° SSW 19:47:44 39° SSE
Cosmos 1959 Rocket 4.5 19:41:44 10° N 19:48:05 90° NE 19:52:35 20° S
Landsat 7 3.9 19:46:17 34° SE 19:48:10 60° ENE 19:52:53 10° N
Cosmos 1656 3.7 19:43:01 10° NNW 19:48:45 76° ENE 19:51:23 33° SE
Cosmos 1763 Rocket 3.4 19:43:57 10° NNW 19:49:11 81° ENE 19:51:29 34° SSE
SL-16 R/B 4.3 19:47:09 10° N 19:50:46 17° NNE 19:54:19 10° ENE
STARLINK-1200 4.0 19:47:31 10° WNW 19:51:32 50° SSW 19:52:31 40° SSE
SPOT 1/Viking Rocket 3.7 19:50:06 34° SE 19:52:16 60° ENE 19:57:26 10° N
Cosmos 540 Rocket 3.9 19:47:48 10° NNW 19:52:49 47° ENE 19:54:31 35° ESE
Cosmos 2208 Rocket 4.2 19:48:35 10° NNW 19:53:42 54° ENE 19:55:32 36° ESE
Cosmos 1455 2.9 19:56:32 37° ENE 19:56:32 37° ENE 19:59:38 10° NNE
STARLINK-1192 4.1 19:52:30 10° WNW 19:56:30 47° SSW 19:57:18 41° S
Iridium 4 Rocket 2.8 19:53:25 10° N 19:57:38 87° E 19:59:06 40° S
Cosmos 2322 Rocket 4.3 19:54:16 10° N 19:57:45 16° NNE 20:01:12 10° ENE
USA 234 3.6 19:52:12 10° ENE 19:58:18 40° SE 20:04:22 10° SSW
Cosmos 1980 Rocket 3.1 19:54:46 10° NNW 19:59:58 36° NE 20:02:02 28° E
Cosmos 1892 2.7 19:57:16 10° NNW 20:01:10 79° W 20:02:13 47° S
STARLINK-1244 4.1 19:57:35 10° WNW 20:01:34 44° SSW 20:02:10 41° S
Cosmos 1814 Rocket 4.2 19:58:59 10° NNW 20:04:17 57° ENE 20:05:54 41° ESE
Cosmos 1825 2.5 20:02:06 10° N 20:05:39 47° ENE 20:05:39 47° ENE
STARLINK-1138 4.2 20:02:30 10° WNW 20:06:25 41° SW 20:06:52 40° SSW
ATLAS 5 CENTAUR R/B 2.8 20:02:37 10° WSW 20:06:46 44° NW 20:11:31 10° NE
Cosmos-2242 3.1 20:08:42 51° E 20:08:46 51° E 20:13:02 10° NNE
COSMOS 2455 4.4 20:04:31 10° NW 20:09:34 29° WSW 20:13:57 13° SSW
ASTEX 1 4.5 20:10:30 28° ENE 20:10:49 28° ENE 20:15:01 10° NNE
STARLINK-1143 4.3 20:07:30 10° WNW 20:11:22 39° SW 20:11:39 38° SSW
Meteor 2-3 Rocket 4.4 20:06:25 10° N 20:11:49 39° ENE 20:13:03 35° E
Cosmos 489 Rocket 4.4 20:07:43 10° NNW 20:13:58 89° ENE 20:16:29 39° SSE
Cosmos 1356 Rocket 3.4 20:13:46 63° ESE 20:13:59 65° E 20:18:12 10° NNE
ERBS 3.7 20:11:38 10° WNW 20:14:20 30° WSW 20:14:20 30° WSW
STARLINK-1241 4.5 20:12:32 10° WNW 20:16:22 36° SW 20:16:28 36° SSW
SAR-Lupe-2 4.3 20:16:25 10° N 20:19:55 51° WNW 20:21:15 32° SW
STARLINK-29 3.7 20:17:08 10° W 20:19:44 50° WNW 20:19:44 50° WNW
IGS 5A 3.6 20:20:27 54° SSW 20:21:13 69° WSW 20:25:23 10° NNW
Cosmos 2344 4.5 20:12:29 10° NW 20:21:22 64° NE 20:28:34 27° ESE
ATLAS CENTAUR R/B 1.2 20:18:23 10° NW 20:22:10 65° NNE 20:22:10 65° NNE
Cosmos 1821 Rocket 4.0 20:18:09 10° N 20:24:33 72° ENE 20:26:40 44° SSE
Spot 2 Rocket 4.1 20:22:15 29° SSW 20:24:38 53° W 20:29:38 10° NNW
USA 32 3.9 20:19:35 10° N 20:24:51 88° W 20:26:23 48° S
Cosmos 1934 Rocket 4.3 20:19:33 10° N 20:25:36 48° ENE 20:26:56 41° ESE
Cosmos 2360 4.3 20:22:14 10° NNW 20:27:56 67° ENE 20:29:15 50° ESE
STARLINK-60 4.0 20:25:03 10° W 20:27:48 47° NW 20:27:48 47° NW
Cosmos 841 Rocket 3.4 20:23:03 10° NNW 20:28:23 86° WSW 20:29:32 56° SSE
Cosmos 1850 Rocket 4.0 20:24:21 15° SSW 20:28:38 79° WNW 20:33:51 10° NNE
Terra 1.8 20:29:53 59° E 20:30:18 61° ENE 20:35:00 10° N
Mayak 0.8 20:27:06 10° NE 20:28:23 16° NE 20:28:23 16° NE
Cosmos 2278 3.7 20:25:38 10° NNW 20:31:17 67° ENE 20:32:29 52° ESE
SPOT 5 2.4 20:31:40 79° ESE 20:31:52 82° ENE 20:36:13 10° NNW
Cosmos 2082 Rocket 3.2 20:34:09 31° ENE 20:34:09 31° ENE 20:37:49 10° NE
Meteor 2-10 Rocket 3.4 20:33:52 51° S 20:35:17 85° E 20:40:47 10° NNE
Cosmos 1833 Rocket 2.6 20:39:02 58° ESE 20:39:12 59° ESE 20:44:45 10° NE
CARTOSAT-1 3.5 20:39:31 77° SW 20:39:41 78° WSW 20:44:02 10° NNW
Cosmos 1605 Rocket 4.4 20:38:00 10° N 20:43:52 44° ENE 20:44:41 41° E
Cosmos 1408 3.7 20:43:38 10° NNW 20:46:55 39° W 20:46:55 39° W
SL-4 R/B 3.1 20:44:29 10° WNW 20:46:33 34° WNW 20:46:33 34° WNW
ERS-1 Rocket 3.2 20:47:01 52° SSW 20:47:58 62° WSW 20:52:57 10° NNW
RESURS DK-1 3.3 20:46:33 10° NW 20:50:15 39° WSW 20:50:15 39° WSW
Cosmos 1766 Rocket 3.8 20:48:17 10° NNW 20:52:44 62° W 20:52:50 62° WSW
Okean 3 Rocket 4.1 20:49:57 10° NNW 20:54:14 50° W 20:54:34 49° WSW
BREEZE M DEB (TANK) 4.1 20:50:08 10° W 20:53:25 32° WSW 20:53:25 32° WSW
Resurs 01 Rocket 4.3 20:56:25 10° WSW 20:58:26 13° W 21:00:26 10° WNW
COSMOS 2406 3.4 20:54:52 18° SW 20:59:08 68° WNW 21:04:52 10° NNE
CZ-4C R/B 2.8 20:52:32 10° NW 20:59:35 90° WSW 21:01:49 52° SE
Cosmos 1500 Rocket 4.3 20:58:37 10° N 21:01:56 44° NNE 21:01:56 44° NNE
Meteor 1-27 4.4 21:05:11 58° E 21:05:11 58° E 21:10:44 10° NNE
Cosmos 2151 4.3 21:03:36 10° NNW 21:07:21 32° W 21:07:34 32° W
Cosmos 1697 Rocket 3.2 21:08:30 10° NW 21:13:55 47° WSW 21:14:29 45° SW
Cosmos 2369 4.2 21:08:38 10° NW 21:14:02 47° WSW 21:14:33 46° SW
Cosmos 1607 4.4 21:28:01 46° ENE 21:28:01 46° ENE 21:32:36 10° NE
Cosmos 1455 4.5 21:31:25 20° WNW 21:31:50 20° WNW 21:34:45 10° NNW
Cosmos 1743 Rocket 4.4 21:30:18 10° NNW 21:33:44 50° NNW 21:33:44 50° NNW
SL-16 R/B 2.5 21:30:34 10° NNW 21:36:10 56° NE 21:36:10 56° NE
Cosmos 2360 Rocket 3.4 21:31:41 10° NNW 21:36:41 31° NE 21:37:32 30° ENE
Thor Agena Rocket 4.0 21:32:20 10° NNE 21:36:20 54° NE 21:36:20 54° NE
USA 234 3.2 21:35:08 10° ENE 21:41:43 84° NNW 21:48:16 10° WSW
Cosmos 2322 Rocket 2.6 21:37:35 10° NNW 21:43:03 54° NE 21:43:03 54° NE
Cosmos 1980 Rocket 2.7 21:38:45 10° NW 21:43:48 48° W 21:43:48 48° W
Cosmos 2221 3.7 21:46:37 40° N 21:46:37 40° N 21:49:30 10° N
ASTEX 1 4.3 21:50:00 43° WNW 21:50:00 43° WNW 21:54:23 10° NNW
Cosmos 1459 Rocket 4.3 21:45:28 10° N 21:51:41 53° ENE 21:51:41 53° ENE
ATLAS 5 CENTAUR R/B 4.3 21:49:07 10° WNW 21:52:40 21° N 21:56:38 10° NE
Cosmos 2333 Rocket 4.1 21:54:01 10° NNW 21:58:26 23° NE 22:00:27 19° ENE
ATLAS CENTAUR R/B 4.2 21:58:21 10° WNW 21:58:21 10° WNW 21:58:21 10° WNW
Cosmos 1727 Rocket 3.9 22:05:51 80° NE 22:05:51 80° NE 22:11:57 10° N
Mayak 0.4 22:02:16 10° N 22:04:58 32° NNW 22:04:58 32° NNW
Terra 3.8 22:08:45 20° W 22:08:45 20° W 22:11:56 10° NW
Cosmos 1153 Rocket 4.5 22:02:25 10° NNW 22:08:42 76° W 22:08:42 76° W
Cosmos 2016 Rocket 4.4 22:05:38 10° N 22:11:42 52° ENE 22:11:42 52° ENE
Cosmos 2082 Rocket 2.9 22:15:56 45° WNW 22:16:41 48° NW 22:22:12 10° NNE
Cosmos 1241 Rocket 4.4 22:10:59 10° NW 22:17:01 79° NNE 22:17:01 79° NNE
Cosmos 1802 Rocket 4.1 22:12:24 10° N 22:18:13 65° NE 22:18:13 65° NE
Cosmos 2100 Rocket 4.0 22:14:46 10° N 22:20:40 80° N 22:20:40 80° N
Cosmos 1833 Rocket 4.2 22:20:38 21° W 22:23:29 32° NW 22:28:31 10° NNE
Cosmos 968 Rocket 4.1 22:25:39 53° N 22:25:39 53° N 22:29:54 10° NNE
Cosmos 2173 Rocket 4.0 22:20:39 10° N 22:26:16 77° N 22:26:16 77° N
Cosmos 2219 Rocket 3.5 22:28:50 10° NNW 22:33:49 31° NE 22:34:42 30° ENE
ALOS 2 4.2 22:36:50 32° NNW 22:36:50 32° NNW 22:39:17 10° NNW
CZ-4C R/B 4.1 22:41:41 10° WNW 22:46:59 28° WSW 22:46:59 28° WSW
Cosmos 2322 4.1 22:54:08 10° NNW 22:59:15 59° NNE 22:59:15 59° NNE
COSMOS 2428 3.5 22:57:54 10° NNW 23:03:23 44° NE 23:03:37 44° ENE
Cosmos 839 Rocket 4.1 23:14:56 76° ENE 23:14:56 76° ENE 23:21:25 10° NE
SL-16 R/B 3.8 23:15:10 10° NW 23:18:02 24° WNW 23:18:02 24° WNW
Cosmos 2360 Rocket 3.1 23:15:31 10° NW 23:19:17 41° NW 23:19:17 41° NW
CZ-2D R/B 4.3 23:18:16 10° NE 23:21:39 16° E 23:21:40 16° E
Helios 1B rocket 4.4 23:20:14 10° NNE 23:22:09 27° NNE 23:22:09 27° NNE
USA 234 3.9 23:18:08 10° ENE 23:24:27 53° N 23:30:45 10° W
Cosmos 2322 Rocket 3.8 23:22:04 10° NW 23:24:52 24° WNW 23:24:52 24° WNW
ATLAS 5 CENTAUR R/B 4.3 23:34:58 10° NW 23:39:04 23° NNE 23:43:39 10° ENE
MOS 1-B Rocket 4.4 23:33:47 10° N 23:39:54 60° WNW 23:40:21 58° W
Cosmos 1833 4.5 23:41:33 65° NE 23:41:33 65° NE 23:46:25 10° NNE
Cosmos 2333 Rocket 2.6 23:37:50 10° NNW 23:42:26 60° NNW 23:42:26 60° NNW
Cosmos 2237 Rocket 3.4 23:39:16 10° NNW 23:44:35 39° NE 23:46:25 31° E
Cosmos 2233 Rocket 4.2 23:42:16 10° NNW 23:47:50 61° WNW 23:47:50 61° WNW
SL-16 R/B 3.2 23:48:42 42° E 23:50:07 49° ENE 23:56:04 10° N
Cosmos 1680 Rocket 4.3 23:45:29 10° NNW 23:49:10 46° NNW 23:49:10 46° NNW
Lacrosse 5 rocket 3.9 23:54:19 15° ENE 23:54:19 15° ENE 23:55:06 10° ENE
Cosmos 44 Rocket 4.3 23:53:59 42° N 23:53:59 42° N 23:57:27 10° NE
